SCP
-0 0 0 0 0 0 -0 -0 -0 -0 -0 -0 -0 0 0 0 0 0 -0 -0 -0 -0 -0 -0 -0 -0 -0 -0 -0 -0 -0 -0 -0 -0 -0 0 0 0 0 -0 -0 -0 -0 -0 -0 -0 -0 -0 -0
-0 -0 0 0 0 -0 0 0 0 -0 -0 0 0 0 0 0 0 -0 0 0 -0 -0 -0 -0 -0 -0 -0 -0 -0 -0 -0 -0 -0 -0 0 0 0 0 -0 -0 -0 -0 -0 -0 -0 -0 -0 -0 -0
-0 0 0 0 0 0 0 0 0 0 -0 0 0 0 0 0 0 -0 -0 -0 -0 -0 -0 -0 -0 -0 -0 -0 -0 -0 -0 -0 0 0 0 0 0 0 -0 -0 -0 -0 -0 -0 -0 -0 -0 -0 -0
-0 0 0 0 0 0 0 0 0 0 -0 -0 0 0 0 0 0 -0 -0 -0 -0 -0 -0 -0 -0 -0 -0 -0 -0 -0 0 0 0 0 0 0 0 -0 -0 -0 -0 -0 -0 -0 -0 -0 -0 -0 -0
0 0 0 0 0 0 0 0 -0 0 0 0 0 0 0 0 -0 -0 -0 -0 -0 -0 -0 -0 -0 -0 -0 0 0 0 0 0 0 0 0 -0 -0 -0 -0 -0 -0 -0 -0 -0 -0 -0 -0 0 0
0 0 0 0 0 -0 0 0 -0 -0 0 0 0 -0 0 -0 -0 -0 -0 -0 -0 -0 -0 -0 0 0 0 0 0 0 0 0 0 0 0 -0 -0 -0 -0 -0 -0 -0 -0 -0 -0 -0 -0 0 0
0 0 0 0 0 0 -0 0 0 0 0 0 -0 -0 -0 -0 -0 -0 -0 -0 -0 0 0 0 0 0 0 0 0 0 0 0 0 0 0 -0 -0 -0 -0 -0 -0 -0 -0 -0 -0 0 0 -0 -0
-0 0 0 0 -0 0 0 -0 0 -0 -0 0 0 0 -0 -0 -0 -0 -0 -0 0 0 0 0 0 0 0 0 0 0 0 0 0 -0 -0 -0 -0 -0 -0 -0 -0 -0 -0 -0 0 0 -0 -0 -0
0 0 0 0 -0 -0 0 0 -0 -0 -0 -0 0 0 -0 -0 -0 -0 -0 -0 0 0 0 0 0 0 0 0 0 0 0 0 -0 0 0 0 -0 -0 -0 -0 -0 -0 0 0 0 0 0 0 0
-0 0 0 -0 0 -0 0 -0 0 0 -0 0 0 -0 -0 -0 -0 -0 -0 -0 0 0 0 0 0 0 0 0 0 0 0 0 0 0 0 -0 -0 -0 -0 -0 0 0 0 0 0 0 0 0 0
-0 0 -0 -0 -0 0 -0 -0 0 0 -0 -0 -0 -0 -0 -0 -0 -0 -0 -0 0 0 0 0 0 0 0 0 0 0 0 0 0 0 -0 -0 -0 -0 -0 -0 0 0 0 0 0 0 0 0 0
-0 -0 -0 0 0 0 0 0 0 -0 0 -0 -0 -0 -0 -0 -0 -0 -0 -0 0 0 0 0 0 0 0 0 0 0 0 0 -0 -0 -0 -0 -0 -0 -0 0 0 0 0 0 0 0 0 0 0
-0 0 0 0 0 0 0 -0 0 -0 -0 -0 -0 -0 -0 -0 -0 -0 -0 -0 0 0 0 0 0 0 0 0 0 0 0 0 -0 -0 -0 -0 -0 -0 0 0 0 0 0 0 0 0 0 0 0
0 0 0 0 0 0 -0 -0 -0 0 -0 -0 -0 -0 -0 -0 -0 -0 0 -0 0 0 0 0 0 0 0 0 0 0 0 0 -0 -0 -0 -0 -0 0 0 0 0 0 0 0 0 0 0 0 0
0 0 0 0 0 0 0 0 0 0 -0 -0 -0 -0 -0 -0 -0 -0 -0 -0 0 0 0 0 0 0 0 0 0 0 -0 -0 -0 -0 -0 -0 0 0 0 0 0 0 0 0 0 0 0 0 0
0 0 0 0 0 0 0 0 0 0 -0 -0 -0 -0 -0 -0 -0 -0 -0 -0 0 0 0 0 0 0 0 0 -0 -0 -0 -0 -0 -0 -0 -0 0 0 0 0 0 0 0 0 0 0 0 0 0
0 0 0 0 0 0 0 0 0 0 0 -0 -0 -0 -0 -0 -0 -0 -0 -0 -0 -0 -0 -0 -0 -0 -0 -0 -0 -0 -0 -0 -0 -0 0 0 0 0 0 0 0 0 0 0 -0 0 -0 0 0
0 0 0 0 0 0 0 0 -0 0 0 0 -0 -0 -0 -0 -0 -0 -0 -0 0 -0 -0 -0 -0 -0 -0 -0 0 0 -0 -0 -0 0 0 0 0 0 0 0 0 0 0 0 0 -0 0 0 0
0 0 0 0 0 0 0 0 0 0 0 0 0 -0 -0 -0 -0 -0 -0 -0 -0 0 -0 -0 -0 -0 -0 -0 -0 -0 -0 0 0 0 0 0 0 0 0 0 0 0 0 0 0 0 0 0 0
0 0 0 0 0 0 0 0 0 0 0 0 0 0 -0 -0 -0 -0 -0 -0 -0 -0 -0 -0 -0 -0 -0 -0 -0 0 -0 0 0 0 0 0 0 0 0 0 0 0 0 0 0 0 0 0 0
0 0 0 0 0 0 0 0 0 0 0 0 0 0 0 0 -0 0 0 0 -0 -0 -0 -0 -0 -0 -0 -0 -0 0 0 0 0 -0 -0 0 -0 0 0 0 0 0 0 0 0 0 0 0 0
0 0 0 0 0 0 0 0 0 0 0 0 0 0 0 0 0 0 0 -0 -0 -0 -0 -0 -0 -0 -0 -0 -0 -0 0 0 0 1 1 0 0 0 0 0 0 0 0 0 0 0 0 0 0
0 0 0 0 0 0 0 0 0 0 0 0 0 0 0 0 0 0 0 -0 -0 0 -0 0 0 0 0 -0 -0 0 -0 0 1 2 1 0 0 0 0 0 0 0 0 0 0 0 0 0 0
0 0 0 0 0 0 0 0 0 0 0 0 0 0 0 0 0 0 0 0 0 0 0 -0 -0 -0 0 0 -0 -0 -0 1 2 2 1 0 0 0 0 0 0 0 0 0 0 0 0 0 0
0 0 0 0 0 0 0 0 0 0 0 0 0 0 0 0 0 0 0 0 0 0 0 0 0 -0 -0 0 1 1 0 1 2 3 2 0 0 0 0 0 0 0 0 0 0 0 0 0 0
0 0 0 0 0 0 0 0 0 0 0 0 0 0 0 0 0 0 0 0 0 0 0 0 0 0 0 1 1 2 2 4 4 3 3 1 0 0 0 0 0 0 0 0 0 0 0 0 0
0 0 0 0 0 0 0 0 0 0 0 0 0 0 0 0 0 0 0 0 0 0 0 0 0 0 1 1 2 3 5 4 3 2 4 3 1 0 0 0 0 0 0 0 0 0 0 0 0
0 0 0 0 0 0 0 0 0 0 0 0 0 0 0 0 0 0 0 0 0 -0 0 0 0 0 1 1 2 3 5 4 4 4 2 3 2 1 0 0 0 0 0 0 0 0 0 0 0
0 0 0 0 0 0 0 0 0 0 0 0 0 0 0 0 0 0 0 0 0 0 -0 -0 0 0 0 1 2 3 4 4 5 4 4 3 2 1 1 0 0 0 0 0 0 0 0 0 0
0 0 0 0 0 0 0 0 0 0 0 0 0 0 0 0 0 0 0 0 0 0 0 -0 -0 -0 -0 0 1 3 5 4 4 4 4 3 2 1 1 0 0 0 0 0 0 0 0 0 0
Wind_Speed_500mb
8 9 5 2 5 1 5 5 3 1 6 3 22 11 13 3 5 4 9 40 50 44 37 35 31 26 22 20 20 21 23 25 27 28 31 34 36 34 30 24 19 16 14 12 10 8 7 7 5
10 8 4 1 3 5 7 2 0 6 16 22 21 14 7 5 3 4 34 41 49 44 37 32 28 24 22 21 22 24 26 28 29 32 34 36 34 29 25 21 19 18 15 13 11 9 7 7 5
15 4 2 2 2 6 6 6 15 21 7 16 11 6 5 5 6 31 40 45 45 37 31 26 24 22 21 21 25 29 31 32 35 36 36 35 32 28 25 21 21 21 20 18 15 12 10 8 6
9 1 5 3 7 5 3 13 20 14 8 6 15 11 5 9 18 25 44 39 41 32 26 22 22 23 24 27 31 35 37 39 40 40 38 35 32 28 26 24 23 22 21 20 17 14 10 6 3
9 2 2 2 3 1 3 7 22 9 6 11 10 11 14 19 18 31 36 35 39 33 27 24 25 28 30 34 39 41 44 44 43 41 38 36 33 30 26 24 22 21 19 16 14 11 8 7 5
4 2 2 0 3 3 4 6 17 14 12 11 9 23 12 14 23 32 36 39 37 30 30 30 33 35 37 41 44 46 47 46 44 43 41 37 33 29 25 22 20 18 16 13 11 8 7 9 10
3 2 2 4 7 4 3 11 9 16 11 8 25 18 8 20 26 34 40 42 36 31 33 37 39 40 41 44 47 48 49 49 47 44 41 37 32 28 24 22 19 16 13 12 9 6 6 8 11
6 2 1 2 4 3 7 4 5 9 8 19 15 9 14 31 36 42 43 39 35 34 36 40 43 44 46 48 50 52 52 50 48 44 39 35 31 27 23 19 15 13 10 11 9 7 8 12 15
5 3 2 3 3 5 9 5 14 4 11 11 12 7 17 42 45 48 46 42 39 39 42 44 46 48 50 53 53 53 52 50 46 42 37 34 29 25 21 16 13 12 9 9 10 10 13 17 20
4 4 8 6 7 4 14 11 26 12 19 13 11 9 42 45 47 48 48 47 46 47 47 49 50 52 54 54 55 54 52 50 45 40 36 31 27 22 18 12 9 8 8 12 12 11 12 15 20
5 7 5 13 21 10 6 9 19 16 17 23 22 30 53 51 49 45 44 45 48 49 51 53 53 54 56 56 55 53 50 48 44 39 33 28 21 15 12 8 5 2 5 10 7 6 7 12 15
8 14 13 9 3 6 8 8 14 32 10 5 21 24 57 59 55 49 44 48 51 54 53 55 56 56 56 56 54 51 49 46 41 36 31 24 18 14 14 8 7 3 3 6 3 2 2 6 10
8 16 13 23 26 18 18 23 14 30 28 14 26 33 56 56 55 47 41 43 50 55 57 58 58 58 57 56 55 52 47 42 38 36 29 25 20 15 15 10 8 5 4 3 0 3 2 1 5
5 15 33 20 15 11 8 11 14 16 33 25 33 41 54 57 57 52 52 51 58 56 59 60 60 58 58 56 54 52 48 42 39 34 30 26 22 19 14 12 9 7 6 4 4 4 3 7 9
7 13 19 8 6 4 13 9 23 11 25 31 38 42 54 56 56 61 57 55 59 58 58 61 60 61 60 56 54 54 51 46 41 34 30 28 24 21 18 14 12 11 10 9 8 7 6 11 16
4 4 10 7 2 2 8 17 7 18 30 33 39 43 53 59 61 62 62 56 57 58 62 61 62 62 61 59 56 55 55 50 47 41 34 30 28 26 20 18 16 13 15 14 13 10 10 14 17
5 9 6 2 2 3 6 8 3 20 32 36 47 51 53 56 65 67 67 67 61 58 62 65 66 66 63 61 59 57 55 53 49 45 41 35 31 30 26 23 19 17 19 20 17 14 12 13 16
2 3 2 8 1 10 15 29 26 12 30 44 40 48 55 60 77 70 69 71 70 65 63 66 68 69 68 66 66 64 59 55 52 50 47 42 38 34 35 32 25 22 25 26 25 20 17 15 18
4 6 12 16 14 7 15 25 25 16 29 40 49 51 59 71 69 70 71 72 76 74 73 73 74 75 75 76 76 73 69 65 62 61 56 53 46 41 41 36 32 29 29 30 29 27 22 22 22
8 9 16 18 8 14 10 18 20 15 24 41 44 48 63 63 57 61 77 77 81 83 83 82 84 82 83 84 81 80 74 73 71 71 68 63 58 47 45 41 34 32 34 36 36 34 28 26 28
13 15 9 10 6 9 8 11 7 8 18 22 38 46 53 59 62 57 71 88 84 90 92 93 92 92 91 89 89 89 86 84 81 81 74 71 66 58 50 45 40 32 36 39 41 39 33 30 32
8 17 13 7 7 6 4 14 9 7 17 19 32 43 51 53 60 61 82 68 90 100 94 97 100 102 100 100 101 103 99 96 91 86 81 78 73 67 62 55 45 33 37 42 44 43 37 31 31
6 8 6 3 7 5 8 9 4 5 17 23 27 39 44 49 53 62 70 90 100 95 104 106 106 108 108 110 112 112 109 101 96 96 86 83 76 72 68 56 49 30 33 43 51 50 45 37 34
3 5 4 4 5 9 4 9 10 6 11 11 14 14 24 32 38 55 68 77 95 85 107 110 113 118 116 120 119 123 121 113 110 106 92 89 57 71 66 53 39 36 44 50 53 53 48 43 37
4 5 9 11 10 13 8 7 18 17 24 10 19 27 28 30 27 30 37 47 65 69 89 109 119 122 124 127 125 127 127 123 121 113 100 73 80 71 84 70 33 12 50 62 58 58 53 48 43
8 5 9 13 15 21 7 10 13 14 16 12 12 18 21 29 31 34 35 33 34 51 75 93 103 118 121 123 127 128 126 127 126 121 111 97 101 80 79 71 44 36 51 70 65 60 56 52 47
6 12 3 4 3 8 9 10 21 9 22 25 30 32 38 38 41 42 40 40 42 38 43 60 90 99 109 120 115 125 130 132 133 129 119 111 92 99 82 83 61 46 58 69 73 67 63 59 53
8 11 5 4 9 22 11 8 16 3 19 22 30 37 41 46 47 48 52 51 48 50 45 35 44 64 89 101 108 108 125 130 132 130 125 118 104 93 84 93 82 61 72 73 77 71 69 65 60
2 4 2 3 5 17 24 13 7 18 17 18 27 36 42 45 47 49 51 55 52 49 49 46 35 43 62 77 88 93 102 115 121 127 124 117 106 92 84 96 94 71 75 79 79 75 73 68 60
5 3 6 6 8 2 6 11 16 21 20 20 23 29 33 38 44 47 50 54 60 61 58 49 42 34 37 50 65 79 88 102 111 118 117 114 105 93 83 94 100 74 81 84 84 81 76 70 65
Wind_Direction_500mb
166 123 121 21 228 225 85 74 281 96 111 116 148 189 195 97 204 348 171 159 165 170 172 165 166 172 174 174 169 162 154 147 141 138 135 131 128 126 125 120 113 110 112 117 119 112 113 121 112
146 112 59 3 254 127 89 344 235 102 119 122 131 128 140 146 179 185 148 157 167 170 169 165 166 168 171 172 169 162 153 145 139 136 130 128 128 126 124 119 115 114 117 122 126 134 147 153 159
163 118 318 10 77 81 104 189 151 143 103 159 130 96 118 148 164 150 156 157 166 170 166 165 164 164 166 164 164 158 151 145 140 136 132 131 129 127 124 120 116 115 114 115 121 133 148 157 158
170 42 51 289 79 106 96 156 163 134 85 93 128 109 85 193 162 156 156 160 167 170 170 168 167 163 159 159 157 154 150 146 141 137 134 133 132 130 125 125 125 121 119 120 120 120 119 105 105
142 105 294 305 309 303 206 170 178 194 127 142 166 133 117 125 155 153 159 166 171 173 171 170 164 159 158 157 155 153 150 146 142 139 138 136 135 133 133 132 127 125 125 123 123 117 104 77 54
131 126 268 334 334 292 251 187 187 199 158 149 143 138 136 166 166 163 165 168 174 176 171 168 162 160 159 157 154 151 148 145 143 142 141 140 138 138 136 131 126 126 128 122 109 91 59 36 29
183 144 16 324 324 341 357 153 177 190 167 196 152 142 164 170 172 172 172 171 178 179 174 166 161 159 158 155 152 149 147 147 146 145 144 144 142 138 134 128 123 123 119 107 87 59 25 8 2
134 128 142 232 6 38 159 140 160 165 189 154 165 164 174 179 173 168 169 177 182 179 173 165 160 158 156 153 151 151 150 149 148 149 149 144 139 136 135 131 118 107 106 89 65 26 22 37 51
144 182 161 274 195 112 174 192 144 192 173 183 187 153 174 162 166 168 175 181 182 177 171 165 161 159 156 156 155 153 153 153 152 152 149 145 143 140 135 122 113 104 100 72 48 43 49 51 65
242 226 202 221 180 188 188 204 167 173 175 200 177 168 165 166 169 176 182 182 180 176 170 167 165 163 161 162 160 160 161 161 160 158 154 153 152 147 137 136 113 104 72 45 42 52 51 60 74
177 249 182 240 234 193 216 224 182 178 199 215 195 167 171 175 177 182 185 185 177 172 173 170 169 168 168 168 167 167 166 168 167 167 166 168 171 171 170 169 180 99 30 30 42 53 62 74 75
270 258 245 298 169 167 230 199 203 207 231 160 196 195 179 184 185 186 190 188 183 181 177 175 175 174 175 176 175 173 174 177 176 176 178 179 186 197 181 189 197 221 319 8 46 96 104 91 80
226 282 294 288 293 273 241 210 212 223 224 204 175 183 187 190 193 190 193 194 189 186 182 181 181 181 182 182 180 181 183 183 184 185 191 194 190 189 197 212 214 234 290 332 182 161 182 159 118
245 268 287 293 295 274 235 217 197 238 211 193 180 189 193 197 198 196 200 197 197 192 189 187 188 187 188 189 188 188 188 187 191 194 196 194 197 207 212 225 232 244 274 238 203 213 210 210 182
309 300 307 10 353 314 157 159 230 211 182 177 184 190 197 204 204 205 203 200 198 197 195 197 194 194 196 195 194 193 193 195 196 196 200 203 210 217 220 226 236 248 254 224 216 220 219 201 187
317 276 264 21 71 77 271 221 196 199 185 186 189 191 202 207 211 211 211 207 204 204 202 201 201 203 202 201 200 200 200 202 207 209 209 212 220 226 227 233 241 245 243 214 212 203 194 189 199
23 256 262 303 356 146 272 275 40 204 206 206 199 198 205 213 216 217 214 212 208 206 209 207 205 206 207 206 205 204 205 207 211 214 216 219 229 234 231 236 243 237 231 217 210 211 189 188 198
254 262 271 288 131 309 267 263 268 230 224 235 219 209 209 214 221 219 217 217 215 210 210 213 212 210 211 209 208 207 209 212 215 219 223 226 233 240 237 236 238 228 223 214 213 207 203 201 202
191 265 283 269 261 250 236 264 271 261 232 241 235 219 218 222 224 222 223 221 221 220 215 214 217 215 212 212 211 212 213 217 219 222 226 229 228 235 243 238 241 231 220 218 213 209 207 201 197
216 262 261 280 236 211 239 257 287 254 251 245 248 237 231 234 227 227 225 226 224 224 223 220 221 221 220 218 217 216 217 223 224 227 228 231 233 231 237 238 240 231 222 218 216 215 210 197 183
226 230 247 268 278 240 266 250 267 263 267 266 250 247 242 235 232 227 232 228 230 229 225 226 225 225 223 225 223 221 222 226 228 232 231 230 232 234 233 236 230 230 224 229 223 217 215 208 192
268 209 254 249 239 225 295 283 264 274 275 247 244 241 245 239 237 230 236 234 229 232 231 231 232 233 232 229 228 228 226 226 230 234 234 232 230 232 230 229 225 230 219 226 227 221 219 215 207
256 174 269 195 169 231 183 260 254 288 282 274 261 248 250 251 247 242 240 241 248 243 236 231 234 235 236 236 234 236 233 233 235 234 235 235 233 237 229 225 222 226 220 233 228 224 219 216 216
114 208 108 113 165 245 234 250 261 253 277 294 291 311 299 303 289 276 268 257 252 244 251 249 239 237 235 236 236 238 239 236 235 237 235 229 238 253 241 224 217 230 232 235 224 223 221 219 216
190 261 262 252 239 277 122 216 274 255 263 281 349 3 5 3 356 332 312 281 268 255 248 255 253 248 241 237 239 239 241 241 242 242 232 232 237 235 238 227 213 222 266 239 226 223 220 217 217
178 218 283 285 277 289 138 239 278 271 26 4 66 38 27 13 359 358 355 343 317 281 271 262 261 262 253 246 240 241 243 243 243 244 241 234 232 232 242 227 201 289 239 225 227 224 222 219 216
153 222 351 207 134 253 270 256 274 273 72 46 32 12 15 7 7 3 358 351 347 332 318 274 263 262 259 258 250 244 242 243 245 244 241 239 236 236 238 228 218 239 239 222 222 223 221 219 217
244 138 231 213 253 267 232 263 272 321 42 31 25 12 4 5 4 3 2 357 352 343 334 318 289 272 265 261 259 253 247 243 243 244 241 238 234 237 235 228 228 237 229 220 217 221 220 220 216
222 223 57 296 265 277 280 270 24 88 53 37 24 10 3 359 357 357 359 0 357 349 342 335 315 291 271 263 261 257 250 246 243 244 242 238 235 235 233 236 232 236 221 219 216 220 221 218 217
333 55 72 276 261 247 296 267 84 76 55 35 22 7 0 358 358 357 355 357 358 359 354 345 327 305 275 275 268 261 252 247 245 245 244 239 234 233 236 234 230 230 218 219 217 219 220 219 218
Wind_Speed_850mb
8 9 5 2 5 1 5 5 3 1 6 3 22 11 13 3 5 4 9 40 50 44 37 35 31 26 22 20 20 21 23 25 27 28 31 34 36 34 30 24 19 16 14 12 10 8 7 7 5
10 8 4 1 3 5 7 2 0 6 16 22 21 14 7 5 3 4 34 41 49 44 37 32 28 24 22 21 22 24 26 28 29 32 34 36 34 29 25 21 19 18 15 13 11 9 7 7 5
15 4 2 2 2 6 6 6 15 21 7 16 11 6 5 5 6 31 40 45 45 37 31 26 24 22 21 21 25 29 31 32 35 36 36 35 32 28 25 21 21 21 20 18 15 12 10 8 6
9 1 5 3 7 5 3 13 20 14 8 6 15 11 5 9 18 25 44 39 41 32 26 22 22 23 24 27 31 35 37 39 40 40 38 35 32 28 26 24 23 22 21 20 17 14 10 6 3
9 2 2 2 3 1 3 7 22 9 6 11 10 11 14 19 18 31 36 35 39 33 27 24 25 28 30 34 39 41 44 44 43 41 38 36 33 30 26 24 22 21 19 16 14 11 8 7 5
4 2 2 0 3 3 4 6 17 14 12 11 9 23 12 14 23 32 36 39 37 30 30 30 33 35 37 41 44 46 47 46 44 43 41 37 33 29 25 22 20 18 16 13 11 8 7 9 10
3 2 2 4 7 4 3 11 9 16 11 8 25 18 8 20 26 34 40 42 36 31 33 37 39 40 41 44 47 48 49 49 47 44 41 37 32 28 24 22 19 16 13 12 9 6 6 8 11
6 2 1 2 4 3 7 4 5 9 8 19 15 9 14 31 36 42 43 39 35 34 36 40 43 44 46 48 50 52 52 50 48 44 39 35 31 27 23 19 15 13 10 11 9 7 8 12 15
5 3 2 3 3 5 9 5 14 4 11 11 12 7 17 42 45 48 46 42 39 39 42 44 46 48 50 53 53 53 52 50 46 42 37 34 29 25 21 16 13 12 9 9 10 10 13 17 20
4 4 8 6 7 4 14 11 26 12 19 13 11 9 42 45 47 48 48 47 46 47 47 49 50 52 54 54 55 54 52 50 45 40 36 31 27 22 18 12 9 8 8 12 12 11 12 15 20
5 7 5 13 21 10 6 9 19 16 17 23 22 30 53 51 49 45 44 45 48 49 51 53 53 54 56 56 55 53 50 48 44 39 33 28 21 15 12 8 5 2 5 10 7 6 7 12 15
8 14 13 9 3 6 8 8 14 32 10 5 21 24 57 59 55 49 44 48 51 54 53 55 56 56 56 56 54 51 49 46 41 36 31 24 18 14 14 8 7 3 3 6 3 2 2 6 10
8 16 13 23 26 18 18 23 14 30 28 14 26 33 56 56 55 47 41 43 50 55 57 58 58 58 57 56 55 52 47 42 38 36 29 25 20 15 15 10 8 5 4 3 0 3 2 1 5
5 15 33 20 15 11 8 11 14 16 33 25 33 41 54 57 57 52 52 51 58 56 59 60 60 58 58 56 54 52 48 42 39 34 30 26 22 19 14 12 9 7 6 4 4 4 3 7 9
7 13 19 8 6 4 13 9 23 11 25 31 38 42 54 56 56 61 57 55 59 58 58 61 60 61 60 56 54 54 51 46 41 34 30 28 24 21 18 14 12 11 10 9 8 7 6 11 16
4 4 10 7 2 2 8 17 7 18 30 33 39 43 53 59 61 62 62 56 57 58 62 61 62 62 61 59 56 55 55 50 47 41 34 30 28 26 20 18 16 13 15 14 13 10 10 14 17
5 9 6 2 2 3 6 8 3 20 32 36 47 51 53 56 65 67 67 67 61 58 62 65 66 66 63 61 59 57 55 53 49 45 41 35 31 30 26 23 19 17 19 20 17 14 12 13 16
2 3 2 8 1 10 15 29 26 12 30 44 40 48 55 60 77 70 69 71 70 65 63 66 68 69 68 66 66 64 59 55 52 50 47 42 38 34 35 32 25 22 25 26 25 20 17 15 18
4 6 12 16 14 7 15 25 25 16 29 40 49 51 59 71 69 70 71 72 76 74 73 73 74 75 75 76 76 73 69 65 62 61 56 53 46 41 41 36 32 29 29 30 29 27 22 22 22
8 9 16 18 8 14 10 18 20 15 24 41 44 48 63 63 57 61 77 77 81 83 83 82 84 82 83 84 81 80 74 73 71 71 68 63 58 47 45 41 34 32 34 36 36 34 28 26 28
13 15 9 10 6 9 8 11 7 8 18 22 38 46 53 59 62 57 71 88 84 90 92 93 92 92 91 89 89 89 86 84 81 81 74 71 66 58 50 45 40 32 36 39 41 39 33 30 32
8 17 13 7 7 6 4 14 9 7 17 19 32 43 51 53 60 61 82 68 90 100 94 97 100 102 100 100 101 103 99 96 91 86 81 78 73 67 62 55 45 33 37 42 44 43 37 31 31
6 8 6 3 7 5 8 9 4 5 17 23 27 39 44 49 53 62 70 90 100 95 104 106 106 108 108 110 112 112 109 101 96 96 86 83 76 72 68 56 49 30 33 43 51 50 45 37 34
3 5 4 4 5 9 4 9 10 6 11 11 14 14 24 32 38 55 68 77 95 85 107 110 113 118 116 120 119 123 121 113 110 106 92 89 57 71 66 53 39 36 44 50 53 53 48 43 37
4 5 9 11 10 13 8 7 18 17 24 10 19 27 28 30 27 30 37 47 65 69 89 109 119 122 124 127 125 127 127 123 121 113 100 73 80 71 84 70 33 12 50 62 58 58 53 48 43
8 5 9 13 15 21 7 10 13 14 16 12 12 18 21 29 31 34 35 33 34 51 75 93 103 118 121 123 127 128 126 127 126 121 111 97 101 80 79 71 44 36 51 70 65 60 56 52 47
6 12 3 4 3 8 9 10 21 9 22 25 30 32 38 38 41 42 40 40 42 38 43 60 90 99 109 120 115 125 130 132 133 129 119 111 92 99 82 83 61 46 58 69 73 67 63 59 53
8 11 5 4 9 22 11 8 16 3 19 22 30 37 41 46 47 48 52 51 48 50 45 35 44 64 89 101 108 108 125 130 132 130 125 118 104 93 84 93 82 61 72 73 77 71 69 65 60
2 4 2 3 5 17 24 13 7 18 17 18 27 36 42 45 47 49 51 55 52 49 49 46 35 43 62 77 88 93 102 115 121 127 124 117 106 92 84 96 94 71 75 79 79 75 73 68 60
5 3 6 6 8 2 6 11 16 21 20 20 23 29 33 38 44 47 50 54 60 61 58 49 42 34 37 50 65 79 88 102 111 118 117 114 105 93 83 94 100 74 81 84 84 81 76 70 65
Wind_Direction_850mb
166 123 121 21 228 225 85 74 281 96 111 116 148 189 195 97 204 348 171 159 165 170 172 165 166 172 174 174 169 162 154 147 141 138 135 131 128 126 125 120 113 110 112 117 119 112 113 121 112
146 112 59 3 254 127 89 344 235 102 119 122 131 128 140 146 179 185 148 157 167 170 169 165 166 168 171 172 169 162 153 145 139 136 130 128 128 126 124 119 115 114 117 122 126 134 147 153 159
163 118 318 10 77 81 104 189 151 143 103 159 130 96 118 148 164 150 156 157 166 170 166 165 164 164 166 164 164 158 151 145 140 136 132 131 129 127 124 120 116 115 114 115 121 133 148 157 158
170 42 51 289 79 106 96 156 163 134 85 93 128 109 85 193 162 156 156 160 167 170 170 168 167 163 159 159 157 154 150 146 141 137 134 133 132 130 125 125 125 121 119 120 120 120 119 105 105
142 105 294 305 309 303 206 170 178 194 127 142 166 133 117 125 155 153 159 166 171 173 171 170 164 159 158 157 155 153 150 146 142 139 138 136 135 133 133 132 127 125 125 123 123 117 104 77 54
131 126 268 334 334 292 251 187 187 199 158 149 143 138 136 166 166 163 165 168 174 176 171 168 162 160 159 157 154 151 148 145 143 142 141 140 138 138 136 131 126 126 128 122 109 91 59 36 29
183 144 16 324 324 341 357 153 177 190 167 196 152 142 164 170 172 172 172 171 178 179 174 166 161 159 158 155 152 149 147 147 146 145 144 144 142 138 134 128 123 123 119 107 87 59 25 8 2
134 128 142 232 6 38 159 140 160 165 189 154 165 164 174 179 173 168 169 177 182 179 173 165 160 158 156 153 151 151 150 149 148 149 149 144 139 136 135 131 118 107 106 89 65 26 22 37 51
144 182 161 274 195 112 174 192 144 192 173 183 187 153 174 162 166 168 175 181 182 177 171 165 161 159 156 156 155 153 153 153 152 152 149 145 143 140 135 122 113 104 100 72 48 43 49 51 65
242 226 202 221 180 188 188 204 167 173 175 200 177 168 165 166 169 176 182 182 180 176 170 167 165 163 161 162 160 160 161 161 160 158 154 153 152 147 137 136 113 104 72 45 42 52 51 60 74
177 249 182 240 234 193 216 224 182 178 199 215 195 167 171 175 177 182 185 185 177 172 173 170 169 168 168 168 167 167 166 168 167 167 166 168 171 171 170 169 180 99 30 30 42 53 62 74 75
270 258 245 298 169 167 230 199 203 207 231 160 196 195 179 184 185 186 190 188 183 181 177 175 175 174 175 176 175 173 174 177 176 176 178 179 186 197 181 189 197 221 319 8 46 96 104 91 80
226 282 294 288 293 273 241 210 212 223 224 204 175 183 187 190 193 190 193 194 189 186 182 181 181 181 182 182 180 181 183 183 184 185 191 194 190 189 197 212 214 234 290 332 182 161 182 159 118
245 268 287 293 295 274 235 217 197 238 211 193 180 189 193 197 198 196 200 197 197 192 189 187 188 187 188 189 188 188 188 187 191 194 196 194 197 207 212 225 232 244 274 238 203 213 210 210 182
309 300 307 10 353 314 157 159 230 211 182 177 184 190 197 204 204 205 203 200 198 197 195 197 194 194 196 195 194 193 193 195 196 196 200 203 210 217 220 226 236 248 254 224 216 220 219 201 187
317 276 264 21 71 77 271 221 196 199 185 186 189 191 202 207 211 211 211 207 204 204 202 201 201 203 202 201 200 200 200 202 207 209 209 212 220 226 227 233 241 245 243 214 212 203 194 189 199
23 256 262 303 356 146 272 275 40 204 206 206 199 198 205 213 216 217 214 212 208 206 209 207 205 206 207 206 205 204 205 207 211 214 216 219 229 234 231 236 243 237 231 217 210 211 189 188 198
254 262 271 288 131 309 267 263 268 230 224 235 219 209 209 214 221 219 217 217 215 210 210 213 212 210 211 209 208 207 209 212 215 219 223 226 233 240 237 236 238 228 223 214 213 207 203 201 202
191 265 283 269 261 250 236 264 271 261 232 241 235 219 218 222 224 222 223 221 221 220 215 214 217 215 212 212 211 212 213 217 219 222 226 229 228 235 243 238 241 231 220 218 213 209 207 201 197
216 262 261 280 236 211 239 257 287 254 251 245 248 237 231 234 227 227 225 226 224 224 223 220 221 221 220 218 217 216 217 223 224 227 228 231 233 231 237 238 240 231 222 218 216 215 210 197 183
226 230 247 268 278 240 266 250 267 263 267 266 250 247 242 235 232 227 232 228 230 229 225 226 225 225 223 225 223 221 222 226 228 232 231 230 232 234 233 236 230 230 224 229 223 217 215 208 192
268 209 254 249 239 225 295 283 264 274 275 247 244 241 245 239 237 230 236 234 229 232 231 231 232 233 232 229 228 228 226 226 230 234 234 232 230 232 230 229 225 230 219 226 227 221 219 215 207
256 174 269 195 169 231 183 260 254 288 282 274 261 248 250 251 247 242 240 241 248 243 236 231 234 235 236 236 234 236 233 233 235 234 235 235 233 237 229 225 222 226 220 233 228 224 219 216 216
114 208 108 113 165 245 234 250 261 253 277 294 291 311 299 303 289 276 268 257 252 244 251 249 239 237 235 236 236 238 239 236 235 237 235 229 238 253 241 224 217 230 232 235 224 223 221 219 216
190 261 262 252 239 277 122 216 274 255 263 281 349 3 5 3 356 332 312 281 268 255 248 255 253 248 241 237 239 239 241 241 242 242 232 232 237 235 238 227 213 222 266 239 226 223 220 217 217
178 218 283 285 277 289 138 239 278 271 26 4 66 38 27 13 359 358 355 343 317 281 271 262 261 262 253 246 240 241 243 243 243 244 241 234 232 232 242 227 201 289 239 225 227 224 222 219 216
153 222 351 207 134 253 270 256 274 273 72 46 32 12 15 7 7 3 358 351 347 332 318 274 263 262 259 258 250 244 242 243 245 244 241 239 236 236 238 228 218 239 239 222 222 223 221 219 217
244 138 231 213 253 267 232 263 272 321 42 31 25 12 4 5 4 3 2 357 352 343 334 318 289 272 265 261 259 253 247 243 243 244 241 238 234 237 235 228 228 237 229 220 217 221 220 220 216
222 223 57 296 265 277 280 270 24 88 53 37 24 10 3 359 357 357 359 0 357 349 342 335 315 291 271 263 261 257 250 246 243 244 242 238 235 235 233 236 232 236 221 219 216 220 221 218 217
333 55 72 276 261 247 296 267 84 76 55 35 22 7 0 358 358 357 355 357 358 359 354 345 327 305 275 275 268 261 252 247 245 245 244 239 234 233 236 234 230 230 218 219 217 219 220 219 218